{"data":{"norad_id":43657,"intl_designator":"2018-082A","name":"COSMOS 2528","alt_names":[],"object_type":"PAYLOAD","status":"ACTIVE","operator":null,"country":"CIS","launch_date":"2018-10-25","launch_site_code":"PLMSC","launch_vehicle":null,"mission":null,"orbit_class":"UNKNOWN","rcs_meters":null,"size_class":null,"mass_kg":null,"dimensions":null,"purposes":[],"wikipedia_slug":null,"has_3d_model":false,"image_url":null,"decayed_at":null,"tle_current":{"epoch":"2026-05-25T02:16:57.465120Z","epoch_age_seconds":64006,"freshness":"FRESH","line1":"1 43657U 18082A   26145.09510955 -.00000022  00000+0  38437-4 0  9999","line2":"2 43657  67.1466 133.8826 0007709 281.7891  78.2329 13.96707646386723","mean_motion":13.96707646,"eccentricity":0.0007709,"inclination_deg":67.1466,"raan_deg":133.8826,"arg_perigee_deg":281.7891,"mean_anomaly_deg":78.2329,"bstar":3.8437e-5,"rev_number":38672,"period_min":103.0996002724,"perigee_km":899.60363663889,"apogee_km":910.83311395653,"semimajor_km":7283.3553752977,"source":"CELESTRAK","updated_at":"2026-05-25T13:37:55.865658Z"}}}